Weather History for Monterrey Gen Maria, Mexico

Change the Weather History Date:

Saturday, November 24, 2012

  Actual Average Record
Temperature  
Mean Temperature 60 °F -  
Max Temperature 64 °F 72 °F 84 °F (2005)
Min Temperature 53 °F 51 °F 41 °F (2003)
Degree Days  
Heating Degree Days 6    
Growing Degree Days 10 (Base 50)    
Moisture  
Dew Point 52 °F    
Average Humidity 78    
Maximum Humidity 94    
Minimum Humidity 55    
Precipitation  
Precipitation 0.00 in - - ()
Sea Level Pressure  
Sea Level Pressure 30.29 in    
Wind  
Wind Speed 6 mph ()    
Max Wind Speed 14 mph    
Max Gust Speed -    
Visibility 8.8 miles    
Events Rain    
Averages and records for this station are not official NWS values.
T = Trace of Precipitation, MM = Missing Value Source: Averaged Metar Reports

Daily Weather History Graph

Daily Weather History Graph

Search for Another Location

Airport:

Trip Planner

Search our weather history database for the weather conditions in past years. The results will help you decide how hot, cold, wet, or windy it might be!

Date:

Astronomy

Nov. 24, 2012 Rise Set
Actual Time 7:05 AM CST 5:49 PM CST
Civil Twilight 6:40 AM CST 6:13 PM CST
Nautical Twilight 6:12 AM CST 6:41 PM CST
Astronomical Twilight 5:44 AM CST 7:09 PM CST
Moon 3:20 PM CST (11/24) 3:40 AM CST (11/24)
Length of Visible Light 11h 33m
Length of Day
10h 43m
Waxing Gibbous, 87% of the Moon is Illuminated
Nov 24
Waxing Gibbous
Nov 28
Full
Dec 6
Last Quarter
Dec 13
New
Dec 19
First Quarter

Hourly Weather History & Observations

Time (CST) Temp. Dew Point Humidity Pressure Visibility Wind Dir Wind Speed Gust Speed Precip Events Conditions
12:42 AM 57.2 °F 53.6 °F 88% 30.37 in 3.0 mi NW 8.1 mph - N/A Rain Light Rain
1:43 AM 57.2 °F 55.4 °F 94% 30.35 in 4.0 mi WNW 5.8 mph - N/A Rain Light Rain
2:46 AM 57.2 °F 53.6 °F 88% 30.38 in 6.0 mi WNW 8.1 mph - N/A Rain Light Rain
3:30 AM 57.2 °F 53.6 °F 88% 30.33 in 10.0 mi WNW 6.9 mph - N/A   Overcast
3:47 AM 57.2 °F 53.6 °F 88% 30.32 in 10.0 mi WNW 11.5 mph - N/A   Overcast
4:44 AM 57.2 °F 53.6 °F 88% 30.31 in 12.0 mi NW 13.8 mph - N/A   Overcast
5:46 AM 57.2 °F 51.8 °F 82% 30.33 in 12.0 mi NW 11.5 mph - N/A   Overcast
6:42 AM 57.2 °F 51.8 °F 82% 30.34 in 10.0 mi WNW 10.4 mph - N/A   Overcast
7:16 AM 57.2 °F 51.8 °F 82% 30.34 in 6.0 mi NNW 6.9 mph - N/A   Light Drizzle
7:48 AM 57.2 °F 50.0 °F 77% 30.35 in 7.0 mi WNW 9.2 mph - N/A   Overcast
8:45 AM 59.0 °F 50.0 °F 72% 30.38 in 7.0 mi WNW 8.1 mph - N/A   Overcast
9:45 AM 60.8 °F 50.0 °F 68% 30.36 in 8.0 mi NW 6.9 mph - N/A   Overcast
10:48 AM 60.8 °F 46.4 °F 59% 30.36 in 8.0 mi NW 9.2 mph - N/A   Overcast
11:48 AM 62.6 °F 46.4 °F 55% 30.34 in 10.0 mi NNW 9.2 mph - N/A   Overcast
12:42 PM 62.6 °F 50.0 °F 63% 30.30 in 10.0 mi NNW 6.9 mph - N/A   Overcast
1:43 PM 64.4 °F 51.8 °F 64% 30.26 in 10.0 mi NNW 4.6 mph - N/A   Overcast
2:46 PM 62.6 °F 53.6 °F 72% 30.24 in 10.0 mi NNE 3.5 mph - N/A   Overcast
3:41 PM 62.6 °F 51.8 °F 68% 30.22 in 8.0 mi ENE 3.5 mph - N/A   Overcast
4:45 PM 62.6 °F 53.6 °F 72% 30.21 in 8.0 mi Calm Calm - N/A   Overcast
5:42 PM 60.8 °F 51.8 °F 72% 30.22 in 8.0 mi Calm Calm - N/A   Overcast
6:41 PM 60.8 °F 53.6 °F 77% 30.20 in 8.0 mi Calm Calm - N/A   Overcast
7:42 PM 59.0 °F 51.8 °F 77% 30.21 in 10.0 mi ESE 5.8 mph - N/A   Scattered Clouds
8:43 PM 57.2 °F 51.8 °F 82% 30.22 in 10.0 mi ESE 5.8 mph - N/A   Scattered Clouds
9:40 PM 55.4 °F 53.6 °F 94% 30.20 in 10.0 mi Calm Calm - N/A   Clear
10:45 PM 55.4 °F 53.6 °F 94% 30.20 in 12.0 mi Calm Calm - N/A   Clear
11:40 PM 53.6 °F 51.8 °F 94% 30.25 in 12.0 mi Calm Calm - N/A   Clear